• în România
  • Lista ţărilor
  • Pe 7 zile
  • Temperatura apei
  • Hartă satelitară
  • Meteo pe hartă
  • Widget-uri
  • user-avatar
    Intrare

    Meteo pe oră la Eger

    Astăzi, 22 Mai, Marţi

    Timp Temperatura Precipitaţii Vânt Presiune Umiditate
    00:00 +13°C° 0,4 mm 1 m/s 745 mmHg 93%
    01:00 +13°C° 0 mm 1 m/s 745 mmHg 94%
    02:00 +13°C° 0,4 mm 1 m/s 745 mmHg 94%
    03:00 +12°C° 0,4 mm 1 m/s 745 mmHg 95%
    04:00 +12°C° 0,4 mm 1 m/s 745 mmHg 95%
    05:00 +14°C° 0,4 mm 1 m/s 745 mmHg 93%
    06:00 +15°C° 0,4 mm 1 m/s 745 mmHg 91%
    07:00 +16°C° 0,4 mm 1 m/s 745 mmHg 88%
    08:00 +18°C° 0,3 mm 2 m/s 746 mmHg 84%
    09:00 +19°C° 0,3 mm 2 m/s 746 mmHg 79%
    10:00 +20°C° 0,3 mm 2 m/s 746 mmHg 75%
    11:00 +21°C° 0,3 mm 2 m/s 746 mmHg 73%
    12:00 +23°C° 0,3 mm 2 m/s 745 mmHg 71%
    13:00 +22°C° 0,3 mm 3 m/s 745 mmHg 69%
    14:00 +24°C° 0,3 mm 2 m/s 745 mmHg 69%
    15:00 +24°C° 0,3 mm 2 m/s 745 mmHg 69%
    16:00 +24°C° 0,3 mm 2 m/s 745 mmHg 68%
    17:00 +23°C° 0,6 mm 2 m/s 745 mmHg 73%
    18:00 +21°C° 0,6 mm 1 m/s 745 mmHg 79%
    19:00 +20°C° 0,6 mm 1 m/s 745 mmHg 84%
    20:00 +19°C° 0,7 mm 1 m/s 745 mmHg 85%
    21:00 +19°C° 0,7 mm 1 m/s 745 mmHg 87%
    22:00 +18°C° 0,7 mm 1 m/s 745 mmHg 89%
    23:00 +18°C° 0,3 mm 1 m/s 745 mmHg 89%

    Mâine, 23 Mai, Miercuri

    Timp Temperatura Precipitaţii Vânt Presiune Umiditate
    00:00 +18°C° 0,3 mm 1 m/s 746 mmHg 90%
    01:00 +16°C° 0,3 mm 1 m/s 746 mmHg 91%
    02:00 +16°C° 0,2 mm 1 m/s 746 mmHg 91%
    03:00 +16°C° 0,2 mm 1 m/s 746 mmHg 92%
    04:00 +16°C° 0,2 mm 1 m/s 746 mmHg 92%
    05:00 +18°C° 0,3 mm 1 m/s 746 mmHg 90%
    06:00 +19°C° 0,3 mm 1 m/s 746 mmHg 89%
    07:00 +19°C° 0,3 mm 2 m/s 747 mmHg 87%
    08:00 +20°C° 0,2 mm 2 m/s 747 mmHg 82%
    09:00 +21°C° 0,2 mm 2 m/s 747 mmHg 76%
    10:00 +24°C° 0,2 mm 2 m/s 747 mmHg 71%
    11:00 +24°C° 0,6 mm 2 m/s 747 mmHg 69%
    12:00 +25°C° 0,6 mm 2 m/s 747 mmHg 67%
    13:00 +26°C° 0,6 mm 2 m/s 746 mmHg 66%
    14:00 +26°C° 0,7 mm 1 m/s 746 mmHg 66%
    15:00 +26°C° 0,7 mm 1 m/s 746 mmHg 67%
    16:00 +26°C° 0,7 mm 1 m/s 746 mmHg 67%
    17:00 +24°C° 0,3 mm 1 m/s 746 mmHg 73%
    18:00 +23°C° 0,3 mm 1 m/s 745 mmHg 78%
    19:00 +21°C° 0,3 mm 1 m/s 745 mmHg 84%
    20:00 +20°C° 0,9 mm 2 m/s 746 mmHg 86%
    21:00 +19°C° 0,9 mm 2 m/s 746 mmHg 88%
    22:00 +18°C° 0,9 mm 2 m/s 746 mmHg 90%
    23:00 +17°C° 0,2 mm 2 m/s 746 mmHg 91%

    Poimâine, 24 Mai, Joi

    Timp Temperatura Precipitaţii Vânt Presiune Umiditate
    00:00 +17°C° 0,2 mm 2 m/s 746 mmHg 91%
    01:00 +17°C° 0,2 mm 2 m/s 746 mmHg 92%
    02:00 +16°C° 0,1 mm 2 m/s 746 mmHg 92%
    03:00 +16°C° 0,1 mm 2 m/s 746 mmHg 92%
    04:00 +16°C° 0,1 mm 2 m/s 746 mmHg 92%
    05:00 +17°C° 0 mm 2 m/s 746 mmHg 89%
    06:00 +19°C° 0 mm 2 m/s 746 mmHg 85%
    07:00 +20°C° 0 mm 3 m/s 746 mmHg 81%
    08:00 +21°C° 0 mm 3 m/s 746 mmHg 75%
    09:00 +24°C° 0 mm 3 m/s 746 mmHg 68%
    10:00 +26°C° 0 mm 3 m/s 746 mmHg 62%
    11:00 +26°C° 0,2 mm 3 m/s 746 mmHg 60%
    12:00 +27°C° 0,2 mm 3 m/s 746 mmHg 59%
    13:00 +27°C° 0,2 mm 3 m/s 746 mmHg 57%
    14:00 +27°C° 0,6 mm 3 m/s 746 mmHg 61%
    15:00 +26°C° 0,6 mm 3 m/s 745 mmHg 65%
    16:00 +26°C° 0,6 mm 3 m/s 745 mmHg 68%
    17:00 +24°C° 0,3 mm 3 m/s 745 mmHg 73%
    18:00 +22°C° 0,3 mm 3 m/s 745 mmHg 78%
    19:00 +20°C° 0,3 mm 3 m/s 745 mmHg 82%
    20:00 +19°C° 0,2 mm 4 m/s 745 mmHg 84%
    21:00 +19°C° 0,2 mm 4 m/s 746 mmHg 85%
    22:00 +18°C° 0,2 mm 4 m/s 746 mmHg 87%
    23:00 +17°C° 0,2 mm 4 m/s 746 mmHg 87%

    25 Mai, Vineri

    Timp Temperatura Precipitaţii Vânt Presiune Umiditate
    00:00 +17°C° 0,2 mm 3 m/s 746 mmHg 88%
    01:00 +16°C° 0,2 mm 3 m/s 746 mmHg 88%
    02:00 +16°C° 0 mm 3 m/s 746 mmHg 88%
    03:00 +16°C° 0 mm 3 m/s 746 mmHg 89%
    04:00 +14°C° 0 mm 3 m/s 746 mmHg 89%
    05:00 +17°C° 0 mm 3 m/s 746 mmHg 86%
    06:00 +18°C° 0 mm 3 m/s 746 mmHg 82%
    07:00 +19°C° 0 mm 4 m/s 746 mmHg 78%
    08:00 +21°C° 0 mm 4 m/s 746 mmHg 74%
    09:00 +22°C° 0 mm 4 m/s 746 mmHg 69%
    10:00 +23°C° 0 mm 4 m/s 746 mmHg 64%
    11:00 +25°C° 0,4 mm 4 m/s 746 mmHg 63%
    12:00 +26°C° 0,4 mm 4 m/s 746 mmHg 62%
    13:00 +26°C° 0,4 mm 4 m/s 746 mmHg 61%
    14:00 +26°C° 0,5 mm 3 m/s 746 mmHg 61%
    15:00 +26°C° 0,5 mm 3 m/s 745 mmHg 61%
    16:00 +26°C° 0,5 mm 3 m/s 745 mmHg 61%
    17:00 +25°C° 0,6 mm 2 m/s 745 mmHg 67%
    18:00 +23°C° 0,6 mm 2 m/s 745 mmHg 73%
    19:00 +20°C° 0,6 mm 2 m/s 745 mmHg 79%
    20:00 +19°C° 0,6 mm 2 m/s 746 mmHg 82%
    21:00 +18°C° 0,6 mm 2 m/s 746 mmHg 85%
    22:00 +17°C° 0,6 mm 2 m/s 746 mmHg 89%
    23:00 +17°C° 0 mm 2 m/s 746 mmHg 90%

    26 Mai, Sâmbătă

    Timp Temperatura Precipitaţii Vânt Presiune Umiditate
    00:00 +16°C° 0 mm 2 m/s 746 mmHg 91%
    01:00 +16°C° 0 mm 2 m/s 746 mmHg 92%
    02:00 +15°C° 0,3 mm 2 m/s 746 mmHg 92%
    03:00 +15°C° 0,3 mm 2 m/s 746 mmHg 93%
    04:00 +15°C° 0,3 mm 2 m/s 747 mmHg 93%
    05:00 +16°C° 0,2 mm 2 m/s 747 mmHg 89%
    06:00 +18°C° 0,2 mm 2 m/s 747 mmHg 85%
    07:00 +20°C° 0,2 mm 3 m/s 747 mmHg 81%
    08:00 +21°C° 0,5 mm 2 m/s 747 mmHg 76%
    09:00 +24°C° 0,5 mm 2 m/s 747 mmHg 70%
    10:00 +25°C° 0,5 mm 2 m/s 747 mmHg 65%
    11:00 +26°C° 0,7 mm 2 m/s 747 mmHg 61%
    12:00 +27°C° 0,7 mm 2 m/s 747 mmHg 58%
    13:00 +28°C° 0,7 mm 2 m/s 747 mmHg 54%
    14:00 +27°C° 0,3 mm 2 m/s 747 mmHg 55%
    15:00 +27°C° 0,3 mm 2 m/s 747 mmHg 56%
    16:00 +27°C° 0,3 mm 2 m/s 746 mmHg 57%
    17:00 +26°C° 0,3 mm 1 m/s 746 mmHg 64%
    18:00 +24°C° 0,3 mm 1 m/s 746 mmHg 71%
    19:00 +22°C° 0,3 mm 1 m/s 746 mmHg 77%
    20:00 +21°C° 0 mm 1 m/s 747 mmHg 79%
    21:00 +20°C° 0 mm 1 m/s 747 mmHg 81%
    22:00 +19°C° 0 mm 1 m/s 747 mmHg 83%
    23:00 +19°C° 0 mm 1 m/s 747 mmHg 84%

    27 Mai, Duminică

    Timp Temperatura Precipitaţii Vânt Presiune Umiditate
    00:00 +19°C° 0 mm 1 m/s 747 mmHg 85%
    01:00 +18°C° 0 mm 1 m/s 747 mmHg 86%
    02:00 +18°C° 0 mm 1 m/s 747 mmHg 87%
    03:00 +16°C° 0 mm 1 m/s 747 mmHg 88%
    04:00 +16°C° 0 mm 1 m/s 747 mmHg 89%
    05:00 +19°C° 0 mm 1 m/s 747 mmHg 85%
    06:00 +20°C° 0 mm 1 m/s 747 mmHg 81%
    07:00 +22°C° 0 mm 1 m/s 748 mmHg 77%
    08:00 +23°C° 0,3 mm 1 m/s 748 mmHg 73%
    09:00 +25°C° 0,3 mm 1 m/s 748 mmHg 70%
    10:00 +26°C° 0,3 mm 1 m/s 747 mmHg 67%
    11:00 +27°C° 0,5 mm 1 m/s 747 mmHg 63%
    12:00 +28°C° 0,5 mm 1 m/s 747 mmHg 59%
    13:00 +28°C° 0,5 mm 1 m/s 747 mmHg 56%
    14:00 +28°C° 0,4 mm 1 m/s 747 mmHg 56%
    15:00 +28°C° 0,4 mm 1 m/s 747 mmHg 56%
    16:00 +28°C° 0,4 mm 1 m/s 746 mmHg 56%
    17:00 +26°C° 0,2 mm 1 m/s 746 mmHg 62%
    18:00 +25°C° 0,2 mm 1 m/s 746 mmHg 68%
    19:00 +23°C° 0,2 mm 1 m/s 746 mmHg 74%
    20:00 +22°C° 0,1 mm 1 m/s 747 mmHg 78%
    21:00 +21°C° 0,1 mm 1 m/s 747 mmHg 81%
    22:00 +20°C° 0,1 mm 1 m/s 747 mmHg 85%
    23:00 +20°C° 0,1 mm 1 m/s 747 mmHg 86%
    Arată mai mult